Weather History for KSMQ - August, 2013

Change the Weather History Date:

Wednesday, August 21, 2013

  Actual Average (KMMU) Record (KMMU)
Temperature  
Mean Temperature 74 °F -  
Max Temperature 88 °F 80 °F - (-1)
Min Temperature 60 °F 57 °F - (-1)
Cooling Degree Days 8    
Growing Degree Days 24 (Base 50)    
Moisture  
Dew Point 62 °F    
Average Humidity 86    
Maximum Humidity 100    
Minimum Humidity 40    
Precipitation  
Precipitation 0.01 in - - ()
Sea Level Pressure  
Sea Level Pressure 30.13 in    
Wind  
Wind Speed 0 mph (NW)    
Max Wind Speed 6 mph    
Max Gust Speed -    
Visibility 4 miles    
Events Fog    
Averages and records for this station are not official NWS values.
T = Trace of Precipitation, MM = Missing Value Source: NWS Daily Summary

Daily Weather History Graph

Daily Weather History Graph

Search for Another Location

Airport or City:

Trip Planner

Search our weather history database for the weather conditions in past years. The results will help you decide how hot, cold, wet, or windy it might be!

Date:

Astronomy

Aug. 21, 2013 Rise Set
Actual Time 6:15 AM EDT 7:47 PM EDT
Civil Twilight 5:46 AM EDT 8:16 PM EDT
Nautical Twilight 5:11 AM EDT 8:50 PM EDT
Astronomical Twilight 4:34 AM EDT 9:27 PM EDT
Moon 7:54 PM EDT (8/21) 6:52 AM EDT (8/21)
Length of Visible Light 14h 29m
Length of Day
13h 32m
Full, 100% of the Moon is Illuminated
Aug 21
Full
Aug 28
Last Quarter
Sep 5
New
Sep 12
First Quarter
Sep 19
Full

Hourly Weather History & Observations

Time (EDT) Temp. Heat Index Dew Point Humidity Pressure Visibility Wind Dir Wind Speed Gust Speed Precip Events Conditions
12:08 AM 66.2 °F - 64.4 °F 94% 30.13 in 1.2 mi Calm Calm - N/A   Clear
12:34 AM 66.2 °F - 64.4 °F 94% 30.13 in 0.5 mi Calm Calm - 0.01 in Fog Fog
12:39 AM 64.4 °F - 64.4 °F 100% 30.13 in 2.5 mi Calm Calm - 0.01 in   Clear
12:46 AM 64.4 °F - 64.4 °F 100% 30.13 in 8.0 mi Calm Calm - 0.01 in   Clear
12:53 AM 66.0 °F - 64.0 °F 93% 30.13 in 9.0 mi Calm Calm - 0.01 in   Clear
1:29 AM 64.4 °F - 62.6 °F 94% 30.13 in 2.5 mi Calm Calm - N/A   Clear
1:42 AM 62.6 °F - 62.6 °F 100% 30.13 in 0.8 mi Calm Calm - N/A   Clear
1:51 AM 64.4 °F - 62.6 °F 94% 30.13 in 2.5 mi Calm Calm - N/A   Clear
1:53 AM 64.0 °F - 63.0 °F 96% 30.12 in 4.0 mi Calm Calm - N/A   Clear
2:03 AM 64.4 °F - 62.6 °F 94% 30.13 in 1.8 mi Calm Calm - N/A   Clear
2:13 AM 62.6 °F - 62.6 °F 100% 30.13 in 0.8 mi Calm Calm - N/A   Clear
2:21 AM 62.6 °F - 62.6 °F 100% 30.13 in 0.8 mi Calm Calm - N/A   Mist
2:31 AM 62.6 °F - 62.6 °F 100% 30.13 in 1.2 mi Calm Calm - N/A   Scattered Clouds
2:36 AM 64.4 °F - 62.6 °F 94% 30.13 in 3.0 mi Calm Calm - N/A   Partly Cloudy
2:53 AM 64.0 °F - 62.1 °F 93% 30.13 in 8.0 mi Calm Calm - N/A   Partly Cloudy
3:17 AM 62.6 °F - 60.8 °F 94% 30.13 in 2.0 mi Calm Calm - N/A   Partly Cloudy
3:26 AM 62.6 °F - 60.8 °F 94% 30.14 in 3.0 mi Calm Calm - N/A   Clear
3:28 AM 60.8 °F - 60.8 °F 100% 30.14 in 1.5 mi Calm Calm - N/A   Partly Cloudy
3:30 AM 60.8 °F - 60.8 °F 100% 30.14 in 0.8 mi Calm Calm - N/A   Mist
3:39 AM 62.6 °F - 60.8 °F 94% 30.14 in 1.2 mi Calm Calm - N/A   Clear
3:42 AM 62.6 °F - 60.8 °F 94% 30.14 in 3.0 mi Calm Calm - N/A   Clear
3:48 AM 62.6 °F - 60.8 °F 94% 30.14 in 1.8 mi Calm Calm - N/A   Partly Cloudy
3:53 AM 62.1 °F - 61.0 °F 96% 30.14 in 1.8 mi Calm Calm - N/A   Partly Cloudy
3:57 AM 62.6 °F - 60.8 °F 94% 30.14 in 3.0 mi Calm Calm - N/A   Partly Cloudy
4:48 AM 60.8 °F - 60.8 °F 100% 30.15 in 2.5 mi Calm Calm - N/A   Clear
4:53 AM 61.0 °F - 60.1 °F 97% 30.15 in 1.8 mi Calm Calm - N/A   Clear
5:02 AM 60.8 °F - 60.8 °F 100% 30.15 in 3.0 mi Calm Calm - N/A   Clear
5:17 AM 60.8 °F - 60.8 °F 100% 30.15 in 2.0 mi Calm Calm - N/A   Partly Cloudy
5:24 AM 60.8 °F - 59.0 °F 94% 30.15 in 1.2 mi Calm Calm - N/A   Partly Cloudy
5:28 AM 60.8 °F - 59.0 °F 94% 30.15 in 3.0 mi Calm Calm - N/A   Partly Cloudy
5:41 AM 60.8 °F - 59.0 °F 94% 30.15 in 1.5 mi Calm Calm - N/A   Partly Cloudy
5:45 AM 60.8 °F - 59.0 °F 94% 30.16 in 0.8 mi Calm Calm - N/A   Mist
5:51 AM 60.8 °F - 59.0 °F 94% 30.16 in 1.2 mi Calm Calm - N/A   Partly Cloudy
5:53 AM 60.1 °F - 59.0 °F 96% 30.16 in 2.5 mi Calm Calm - N/A   Partly Cloudy
6:00 AM 60.8 °F - 59.0 °F 94% 30.16 in 7.0 mi Calm Calm - N/A   Partly Cloudy
6:53 AM 61.0 °F - 59.0 °F 93% 30.17 in 6.0 mi Calm Calm - N/A   Clear
7:53 AM 64.9 °F - 62.1 °F 90% 30.17 in 7.0 mi Calm Calm - N/A   Clear
8:53 AM 71.1 °F - 64.9 °F 81% 30.18 in 9.0 mi Calm Calm - N/A   Clear
9:53 AM 78.1 °F - 64.9 °F 64% 30.18 in 10.0 mi Calm Calm - N/A   Clear
10:53 AM 82.9 °F 84.4 °F 64.0 °F 53% 30.17 in 10.0 mi Calm Calm - N/A   Clear
11:53 AM 84.9 °F 84.8 °F 60.1 °F 43% 30.16 in 10.0 mi NW 4.6 mph - N/A   Clear
12:53 PM 84.9 °F 84.8 °F 60.1 °F 43% 30.15 in 10.0 mi Calm Calm - N/A   Clear
1:53 PM 87.1 °F 87.0 °F 61.0 °F 41% 30.13 in 10.0 mi Variable 5.8 mph - N/A   Clear
2:53 PM 87.1 °F 86.7 °F 60.1 °F 40% 30.11 in 10.0 mi Calm Calm - N/A   Clear
3:53 PM 86.0 °F 85.7 °F 60.1 °F 41% 30.10 in 10.0 mi Calm Calm - N/A   Clear
4:53 PM 86.0 °F 86.1 °F 61.0 °F 43% 30.09 in 10.0 mi Calm Calm - N/A   Clear
5:53 PM 84.9 °F 86.1 °F 64.0 °F 49% 30.07 in 10.0 mi Calm Calm - N/A   Clear
6:53 PM 81.0 °F 83.3 °F 66.9 °F 62% 30.06 in 10.0 mi Calm Calm - N/A   Clear
7:53 PM 73.9 °F - 68.0 °F 82% 30.06 in 8.0 mi Calm Calm - N/A   Clear
8:53 PM 73.0 °F - 69.1 °F 87% 30.06 in 7.0 mi Calm Calm - N/A   Clear
9:53 PM 71.1 °F - 68.0 °F 90% 30.07 in 5.0 mi Calm Calm - N/A   Clear
10:53 PM 69.1 °F - 66.9 °F 93% 30.06 in 5.0 mi Calm Calm - N/A   Scattered Clouds
11:53 PM 68.0 °F - 66.0 °F 93% 30.04 in 2.5 mi Calm Calm - N/A   Clear